Weather in Serinhisar

Turkey     37°34′50″N   29°15′49″E
temp.,
°C
wind,
m/s
gust,
m/s
humid.,
%
clouds,
%
prec.,
mm/h
press.,
hPa
HPBL,
m
11 april, sun
sun1100:00−2n34620 0.0 102375
03:00−4n35680 0.0 1023218
06:00−5n34690 0.0 1024147
09:00−1n46511 0.0 1023522
12:00+3nne56411 0.0 1021942
15:00+6n45392 0.0 10191227
18:00+6nnw34423 0.0 10191114
21:00+4nnw235347 0.0 1021161
12 april, mon
mon1200:00+2n33595 0.0 102334
03:000n23687 0.0 102326
06:00−1n127412 0.0 102312
09:00+3nne23554 0.0 1022469
12:00+8n34465 0.0 10201192
15:00+10n44447 0.0 10181350
18:00+9n44485 0.0 1018990
21:00+6n22615 0.0 102025
13 april, tue
tue1300:00+5nnw11695 0.0 102011
03:00+4nnw11745 0.0 102010
06:00+3n01784 0.0 102010
09:00+7s01600 0.0 1019386
12:00+12n12432 0.0 10181268
15:00+15wnw44331 0.0 10161745
18:00+14wnw554043 0.0 10161595
21:00+10w226422 0.0 101740
14 april, wed
wed1400:00+8sw117644 0.0 101714
03:00+7ssw2280100 0.0 101720
06:00+6sw128196 0.0 101819
09:00+10s126187 0.0 1018328
12:00+15s4837100 0.0 10161660
15:00+17wsw793825 0.0 10152010
18:00+15sw57434 0.0 10151190
21:00+9s34650 0.0 101784
15 april, thu
thu1500:00+7s336461 0.0 101738
03:00+6ssw2257100 0.0 101726
06:00+5s225595 0.0 101717
09:00+10s234130 0.0 1017333
12:00+15sw48344 0.0 10161560
15:00+16wsw710326 0.0 10151907
18:00+14wsw6835100 0.0 10151361
21:00+9sw22565 0.0 101621